Location: Newark
(38.9311°S, 68.8090°E)
Time: 09:34:32
(UTC+00:00)

LightSail 2 - Pass Details

Date: 27 January 2020
Orbit: 698 x 723 km, 24.0° (Epoch: 24 February)

Event Time Altitude Azimuth Distance (km) Brightness Sun altitude
Exits shadow 22:46:28 14° 7° (N) 1,934 7.1 -17.6°
Drops below altitude 10° 22:49:03 10° 37° (NE) 2,205 7.6 -17.3°
Sets 22:52:36 0° 61° (ENE) 3,121 8.7 -16.7°
